timestamp,surface_pressure_avg,surface_temp_avg,battery_voltage,lat,long
2022-08-31 00:09:00+00:00,316.1096,20.32,11.53,47.84626,-54.09684
2022-08-31 00:19:00+00:00,322.3396,20.32,11.53,47.84626,-54.09684
2022-08-31 00:29:00+00:00,325.6329,20.33,11.53,47.84626,-54.09684
2022-08-31 00:39:00+00:00,330.9397,20.34,11.53,47.84626,-54.09684
2022-08-31 00:49:00+00:00,337.5963,20.35,11.53,47.84626,-54.09684
2022-08-31 00:59:00+00:00,340.9647,20.36,11.53,47.84626,-54.09684
2022-08-31 01:09:00+00:00,341.6096,20.37,11.53,47.84626,-54.09684
2022-08-31 01:19:01+00:00,343.6263,20.38,11.53,47.84626,-54.09684
2022-08-31 01:29:01+00:00,347.0779,20.38,11.53,47.84626,-54.09684
2022-08-31 01:39:01+00:00,348.6263,20.38,11.53,47.84626,-54.09684
2022-08-31 01:49:01+00:00,350.2762,20.38,11.53,47.84626,-54.09684
2022-08-31 01:59:01+00:00,353.3564,20.38,11.53,47.84626,-54.09684
2022-08-31 02:09:01+00:00,353.94300000000015,20.38,11.53,47.84626,-54.09684
2022-08-31 02:19:00+00:00,353.0797,20.38,11.53,47.84626,-54.09684
2022-08-31 02:29:00+00:00,352.2529,20.37,11.53,47.84626,-54.09684
2022-08-31 02:39:00+00:00,352.8012,20.34,11.53,47.84626,-54.09684
2022-08-31 02:49:00+00:00,346.7646,20.3,11.53,47.84626,-54.09684
2022-08-31 02:59:00+00:00,342.0513,20.3,11.53,47.84626,-54.09684
2022-08-31 03:09:00+00:00,341.9514,20.3,11.53,47.84626,-54.09684
2022-08-31 03:19:01+00:00,338.0996,20.3,11.53,47.84626,-54.09684
2022-08-31 03:29:01+00:00,329.233,20.3,11.53,47.84626,-54.09684
2022-08-31 03:39:01+00:00,325.2179,20.3,11.53,47.84626,-54.09684
2022-08-31 03:49:01+00:00,325.483,20.3,11.53,47.84626,-54.09684
2022-08-31 03:59:01+00:00,319.0297,20.3,11.53,47.84626,-54.09684
2022-08-31 04:09:01+00:00,309.3763,20.3,11.53,47.84626,-54.09684
2022-08-31 04:19:00+00:00,309.1146,20.3,11.53,47.84626,-54.09684
2022-08-31 04:29:00+00:00,305.3013,20.33,11.53,47.84626,-54.09684
2022-08-31 04:39:00+00:00,294.8747,20.38,11.53,47.84626,-54.09684
2022-08-31 04:49:00+00:00,287.9164,20.39,11.53,47.84626,-54.09684
2022-08-31 04:59:00+00:00,286.3896,20.4,11.53,47.84626,-54.09684
2022-08-31 05:09:00+00:00,276.3514,20.4,11.53,47.84626,-54.09684
2022-08-31 05:19:01+00:00,262.0314,20.4,11.53,47.84626,-54.09684
2022-08-31 05:29:01+00:00,256.6064,20.4,11.53,47.84626,-54.09684
2022-08-31 05:39:01+00:00,251.7981,20.4,11.53,47.84626,-54.09684
2022-08-31 05:49:01+00:00,238.3715,20.39,11.53,47.84626,-54.09684
2022-08-31 05:59:01+00:00,224.5165,20.4,11.53,47.84626,-54.09684
2022-08-31 06:09:01+00:00,218.6131,20.4,11.53,47.84626,-54.09684
2022-08-31 06:19:01+00:00,212.7281,20.4,11.53,47.84626,-54.09684
2022-08-31 06:29:01+00:00,201.8298,20.4,11.53,47.84626,-54.09684
2022-08-31 06:39:01+00:00,194.4814,20.4,11.53,47.84626,-54.09684
2022-08-31 06:49:01+00:00,191.5815,20.4,11.53,47.84626,-54.09684
2022-08-31 06:59:01+00:00,185.6481,20.4,11.53,47.84626,-54.09684
2022-08-31 07:09:01+00:00,179.5548,20.4,11.53,47.84626,-54.09684
2022-08-31 07:19:00+00:00,178.9965,20.4,11.53,47.84626,-54.09684
2022-08-31 07:29:00+00:00,178.0081,20.4,11.53,47.84626,-54.09684
2022-08-31 07:39:00+00:00,175.6082,20.4,11.53,47.84626,-54.09684
2022-08-31 07:49:00+00:00,175.8432,20.4,11.53,47.84626,-54.09684
2022-08-31 07:59:00+00:00,175.6082,20.4,11.53,47.84626,-54.09684
2022-08-31 08:09:00+00:00,176.0414,20.4,11.53,47.84626,-54.09684
2022-08-31 08:19:00+00:00,181.3981,20.4,11.53,47.84626,-54.09684
2022-08-31 08:29:00+00:00,185.8381,20.4,11.53,47.84626,-54.09684
2022-08-31 08:39:00+00:00,187.7982,20.4,11.53,47.84626,-54.09684
2022-08-31 08:49:00+00:00,193.8314,20.4,11.53,47.84626,-54.09684
2022-08-31 08:59:00+00:00,201.3398,20.4,11.53,47.84626,-54.09684
2022-08-31 09:09:00+00:00,205.8215,20.39,11.53,47.84626,-54.09684
2022-08-31 09:19:00+00:00,210.0114,20.39,11.46,47.84626,-54.09684
2022-08-31 09:29:00+00:00,216.1681,20.38,11.46,47.84626,-54.09684
2022-08-31 09:39:00+00:00,221.1781,20.37,11.46,47.84626,-54.09684
2022-08-31 09:49:00+00:00,225.4914,20.36,11.46,47.84626,-54.09684
2022-08-31 09:59:00+00:00,230.6631,20.34,11.46,47.84626,-54.09684
2022-08-31 10:09:00+00:00,237.2264,20.33,11.46,47.84626,-54.09684
2022-08-31 10:19:01+00:00,239.763,20.32,11.53,47.84626,-54.09684
2022-08-31 10:29:01+00:00,242.7964,20.32,11.53,47.84626,-54.09684
2022-08-31 10:39:01+00:00,250.7231,20.3,11.53,47.84626,-54.09684
2022-08-31 10:49:01+00:00,257.2497,20.3,11.53,47.84626,-54.09684
2022-08-31 10:59:01+00:00,257.1397,20.3,11.53,47.84626,-54.09684
2022-08-31 11:09:01+00:00,261.5281,20.34,11.53,47.84626,-54.09684
2022-08-31 11:19:00+00:00,271.4297,20.32,11.53,47.84626,-54.09684
2022-08-31 11:29:00+00:00,276.1931,20.32,11.53,47.84626,-54.09684
2022-08-31 11:39:00+00:00,275.6614,20.35,11.53,47.84626,-54.09684
2022-08-31 11:49:00+00:00,282.8997,20.37,11.53,47.84626,-54.09684
2022-08-31 11:59:00+00:00,292.443,20.37,11.53,47.84626,-54.09684
2022-08-31 12:09:00+00:00,298.4163,20.39,11.53,47.84626,-54.09684
2022-08-31 12:19:00+00:00,302.3414,20.39,11.46,47.84626,-54.09684
2022-08-31 12:29:00+00:00,311.3813,20.4,11.46,47.84626,-54.09684
2022-08-31 12:39:00+00:00,319.498,20.4,11.46,47.84626,-54.09684
2022-08-31 12:49:00+00:00,324.6346,20.4,11.46,47.84626,-54.09684
2022-08-31 12:59:00+00:00,327.4397,20.4,11.46,47.84626,-54.09684
2022-08-31 13:09:00+00:00,332.0030000000001,20.4,11.46,47.84626,-54.09684
2022-08-31 13:19:00+00:00,335.1097,20.4,11.61,47.84626,-54.09684
2022-08-31 13:29:00+00:00,337.3214,20.37,11.61,47.84626,-54.09684
2022-08-31 13:39:00+00:00,339.5829,20.34,11.61,47.84626,-54.09684
2022-08-31 13:49:00+00:00,339.2962,20.36,11.61,47.84626,-54.09684
2022-08-31 13:59:00+00:00,340.39300000000014,20.37,11.61,47.84626,-54.09684
2022-08-31 14:09:00+00:00,345.048,20.38,11.61,47.84626,-54.09684
2022-08-31 14:19:00+00:00,345.7797,20.39,11.77,47.84626,-54.09684
2022-08-31 14:29:00+00:00,343.9847,20.4,11.77,47.84626,-54.09684
2022-08-31 14:39:00+00:00,345.5747,20.4,11.77,47.84626,-54.09684
2022-08-31 14:49:00+00:00,347.4396,20.4,11.77,47.84626,-54.09684
2022-08-31 14:59:00+00:00,344.5895,20.4,11.77,47.84626,-54.09684
2022-08-31 15:09:00+00:00,341.7397,20.4,11.77,47.84626,-54.09684
2022-08-31 15:19:01+00:00,340.173,20.4,11.77,47.84626,-54.09684
2022-08-31 15:29:01+00:00,335.5896,20.4,11.77,47.84626,-54.09684
2022-08-31 15:39:01+00:00,329.6096,20.42,11.77,47.84626,-54.09684
2022-08-31 15:49:01+00:00,325.8113,20.46,11.77,47.84626,-54.09684
2022-08-31 15:59:01+00:00,322.493,20.45,11.77,47.84626,-54.09684
2022-08-31 16:09:01+00:00,319.868,20.4,11.77,47.84626,-54.09684
2022-08-31 16:19:01+00:00,313.4229,20.4,11.77,47.84626,-54.09684
2022-08-31 16:29:01+00:00,305.7296,20.4,11.77,47.84626,-54.09684
2022-08-31 16:39:01+00:00,299.1714,20.44,11.77,47.84626,-54.09684
2022-08-31 16:49:01+00:00,292.7997,20.48,11.77,47.84626,-54.09684
2022-08-31 16:59:01+00:00,285.3063,20.49,11.77,47.84626,-54.09684
2022-08-31 17:09:01+00:00,274.58799999999997,20.49,11.77,47.84626,-54.09684
2022-08-31 17:19:01+00:00,266.8014,20.49,11.77,47.84626,-54.09684
2022-08-31 17:29:01+00:00,261.7697,20.5,11.77,47.84626,-54.09684
2022-08-31 17:39:01+00:00,255.7764,20.5,11.77,47.84626,-54.09684
2022-08-31 17:49:01+00:00,247.2964,20.5,11.77,47.84626,-54.09684
2022-08-31 17:59:01+00:00,237.9131,20.5,11.77,47.84626,-54.09684
2022-08-31 18:09:01+00:00,230.4097,20.5,11.77,47.84626,-54.09684
2022-08-31 18:19:00+00:00,222.4614,20.5,11.7,47.84626,-54.09684
2022-08-31 18:29:00+00:00,213.3881,20.5,11.7,47.84626,-54.09684
2022-08-31 18:39:00+00:00,202.8798,20.55,11.7,47.84626,-54.09684
2022-08-31 18:49:00+00:00,195.7914,20.58,11.7,47.84626,-54.09684
2022-08-31 18:59:00+00:00,189.7598,20.6,11.7,47.84626,-54.09684
2022-08-31 19:09:00+00:00,180.6348,20.67,11.7,47.84626,-54.09684
2022-08-31 19:19:00+00:00,175.8347,20.7,11.61,47.84626,-54.09684
2022-08-31 19:29:00+00:00,177.2531,20.7,11.61,47.84626,-54.09684
2022-08-31 19:39:00+00:00,174.5182,20.7,11.61,47.84626,-54.09684
2022-08-31 19:49:00+00:00,170.8115,20.7,11.61,47.84626,-54.09684
2022-08-31 19:59:00+00:00,173.8582,20.65,11.61,47.84626,-54.09684
2022-08-31 20:09:00+00:00,176.6248,20.6,11.61,47.84626,-54.09684
2022-08-31 20:19:01+00:00,175.0681,20.61,11.61,47.84626,-54.09684
2022-08-31 20:29:01+00:00,176.1332,20.63,11.61,47.84626,-54.09684
2022-08-31 20:39:01+00:00,180.4381,20.6,11.61,47.84626,-54.09684
2022-08-31 20:49:01+00:00,184.0748,20.6,11.61,47.84626,-54.09684
2022-08-31 20:59:01+00:00,185.4798,20.5,11.61,47.84626,-54.09684
2022-08-31 21:09:01+00:00,191.1848,20.5,11.61,47.84626,-54.09684
2022-08-31 21:19:00+00:00,198.0014,20.58,11.61,47.84626,-54.09684
2022-08-31 21:29:00+00:00,200.0015,20.6,11.61,47.84626,-54.09684
2022-08-31 21:39:00+00:00,205.2314,20.69,11.61,47.84626,-54.09684
2022-08-31 21:49:00+00:00,213.8448,20.7,11.61,47.84626,-54.09684
2022-08-31 21:59:00+00:00,219.1548,20.7,11.61,47.84626,-54.09684
2022-08-31 22:09:00+00:00,220.8914,20.7,11.61,47.84626,-54.09684
2022-08-31 22:19:00+00:00,225.1081,20.7,11.61,47.84626,-54.09684
2022-08-31 22:29:00+00:00,229.9748,20.7,11.61,47.84626,-54.09684
2022-08-31 22:39:00+00:00,231.5914,20.7,11.61,47.84626,-54.09684
2022-08-31 22:49:00+00:00,234.6347,20.7,11.61,47.84626,-54.09684
2022-08-31 22:59:00+00:00,240.8631,20.7,11.61,47.84626,-54.09684
2022-08-31 23:09:00+00:00,245.5331,20.7,11.61,47.84626,-54.09684
2022-08-31 23:19:01+00:00,247.983,20.7,11.61,47.84626,-54.09684
2022-08-31 23:29:01+00:00,250.1964,20.7,11.61,47.84626,-54.09684
2022-08-31 23:39:01+00:00,253.4698,20.7,11.61,47.84626,-54.09684
2022-08-31 23:49:01+00:00,259.3748,20.7,11.61,47.84626,-54.09684
2022-08-31 23:59:01+00:00,265.3848,20.7,11.61,47.84626,-54.09684
